Augsburg, Germany

11:22 PM CEST on July 26, 2017 (GMT +0200)
Augsburg

Weather History for EDMA - October, 2012

Change the Weather History Date:

Sunday, October 21, 2012

  Actual Average Record
Temperature  
Mean Temperature 48 °F -  
Max Temperature 52 °F 46 °F 67 °F (2013)
Min Temperature 45 °F 34 °F 28 °F (2011)
Degree Days  
Heating Degree Days 16    
Moisture  
Dew Point 48 °F    
Average Humidity 98    
Maximum Humidity 100    
Minimum Humidity 88    
Precipitation  
Precipitation 0.00 in - - ()
Sea Level Pressure  
Sea Level Pressure 30.09 in    
Wind  
Wind Speed 4 mph ()    
Max Wind Speed 7 mph    
Max Gust Speed -    
Visibility 1.3 miles    
Events Fog , Rain    
Averages and records for this station are not official NWS values.
T = Trace of Precipitation, MM = Missing Value Source: Averaged Metar Reports

Daily Weather History Graph

Daily Weather History Graph

Search for Another Location

Airport or City:

Trip Planner

Search our weather history database for the weather conditions in past years. The results will help you decide how hot, cold, wet, or windy it might be!

Date:

Astronomy

Oct. 21, 2012 Rise Set
Actual Time 7:45 AM CEST 6:15 PM CEST
Civil Twilight 7:13 AM CEST 6:47 PM CEST
Nautical Twilight 6:37 AM CEST 7:23 PM CEST
Astronomical Twilight 6:00 AM CEST 7:59 PM CEST
Moon 2:05 PM CEST (10/21) 11:41 PM CEST (10/21)
Length of Visible Light 11h 33m
Length of Day
10h 29m
Waxing Crescent, 42% of the Moon is Illuminated
Oct 21
Waxing Crescent
Oct 22
First Quarter
Oct 29
Full
Nov 7
Last Quarter
Nov 13
New

Hourly Weather History & Observations

Time (CEST) Temp. Windchill Dew Point Humidity Pressure Visibility Wind Dir Wind Speed Gust Speed Precip Events Conditions
12:00 AM 47 °F - 47 °F 99% 30.12 in 0 mi ENE 4.5 mph - - Fog Fog
12:20 AM 48.2 °F - 48.2 °F 100% 30.09 in 0.3 mi East 4.6 mph - N/A   Light Drizzle
12:50 AM 46.4 °F 44.3 °F 46.4 °F 100% 30.09 in - East 4.6 mph - N/A   Unknown
1:00 AM 47 °F - 47 °F 98% 30.11 in 0 mi ENE 4.5 mph - - Fog Fog
1:20 AM 46.4 °F 43.5 °F 46.4 °F 100% 30.06 in 0.2 mi ENE 5.8 mph - N/A   Unknown
1:50 AM 46.4 °F 44.3 °F 46.4 °F 100% 30.06 in 0.2 mi ESE 4.6 mph - N/A   Unknown
2:00 AM 47 °F - 47 °F 99% 30.09 in 0 mi ESE 6.7 mph - - Fog Fog
2:20 AM 46.4 °F 44.3 °F 46.4 °F 100% 30.06 in 0.2 mi SE 4.6 mph - N/A   Light Drizzle
2:50 AM 48.2 °F - 48.2 °F 100% 30.06 in 0.2 mi East 5.8 mph - N/A   Unknown
3:00 AM 47 °F - 47 °F 100% 30.08 in 0 mi East 4.5 mph - - Fog Fog
3:20 AM 46.4 °F 44.3 °F 46.4 °F 100% 30.06 in 0.2 mi East 4.6 mph - N/A   Unknown
3:50 AM 46.4 °F 45.2 °F 46.4 °F 100% 30.06 in - SSE 3.5 mph - N/A   Light Drizzle
4:00 AM 47 °F - 46 °F 97% 30.09 in 0 mi SE 4.5 mph - - Fog Fog
4:20 AM 46.4 °F - 46.4 °F 100% 30.06 in 0.2 mi Variable 2.3 mph - N/A   Unknown
4:50 AM 46.4 °F - 46.4 °F 100% 30.06 in 0.2 mi Variable 2.3 mph - N/A   Unknown
5:20 AM 46.4 °F 45.2 °F 46.4 °F 100% 30.06 in - East 3.5 mph - N/A   Unknown
5:50 AM 46.4 °F 44.3 °F 46.4 °F 100% 30.06 in - East 4.6 mph - N/A   Unknown
6:00 AM 46 °F - 46 °F 100% 30.09 in 0 mi East 4.5 mph - - Fog Heavy Fog
6:20 AM 46.4 °F 44.3 °F 46.4 °F 100% 30.06 in 0.6 mi ESE 4.6 mph - N/A   Unknown
6:50 AM 46.4 °F - 46.4 °F 100% 30.06 in 1.2 mi Variable 2.3 mph - N/A   Light Drizzle
7:00 AM 46 °F - 46 °F 100% 30.10 in 0 mi SSE 4.5 mph - - Fog Heavy Fog
7:20 AM 46.4 °F 45.2 °F 46.4 °F 100% 30.06 in 1.6 mi SSE 3.5 mph - N/A   Overcast
7:50 AM 46.4 °F 45.2 °F 46.4 °F 100% 30.06 in 1.1 mi SE 3.5 mph - N/A   Overcast
8:00 AM 46 °F - 46 °F 100% 30.10 in 1 mi SE 4.5 mph - - Fog Light Fog
8:20 AM 46.4 °F 45.2 °F 46.4 °F 100% 30.09 in 1.1 mi SSE 3.5 mph - N/A   Overcast
8:50 AM 46.4 °F 45.2 °F 46.4 °F 100% 30.09 in 0.8 mi SSE 3.5 mph - N/A   Light Drizzle
9:00 AM 47 °F - 47 °F 100% 30.12 in 1 mi SE 4.5 mph - -   Mist
9:20 AM 48.2 °F - 48.2 °F 100% 30.09 in 0.9 mi SSE 4.6 mph - N/A   Light Drizzle
9:50 AM 48.2 °F - 48.2 °F 100% 30.09 in 1.1 mi SSE 4.6 mph - N/A   Overcast
10:00 AM 48 °F - 47 °F 97% 30.12 in 1 mi SE 4.5 mph - - Rain Light Drizzle
10:20 AM 48.2 °F - 48.2 °F 100% 30.09 in 1.2 mi South 5.8 mph - N/A   Overcast
10:50 AM 48.2 °F - 48.2 °F 100% 30.09 in 1.6 mi SSE 3.5 mph - N/A   Overcast
11:20 AM 48.2 °F - 48.2 °F 100% 30.09 in 1.6 mi South 5.8 mph - N/A   Overcast
11:50 AM 50.0 °F - 50.0 °F 100% 30.12 in 1.9 mi SSE 3.5 mph - N/A   Overcast
12:00 PM 49 °F - 49 °F 98% 30.13 in 3 mi SSE 4.5 mph - -   Mist
12:20 PM 50.0 °F - 50.0 °F 100% 30.12 in 1.9 mi Variable 2.3 mph - N/A   Overcast
12:50 PM 50.0 °F - 50.0 °F 100% 30.09 in 2.5 mi ESE 3.5 mph - N/A   Overcast
1:00 PM 50 °F - 49 °F 95% 30.12 in 3 mi SE 2.2 mph - -   Mist
1:20 PM 51.8 °F - 50.0 °F 94% 30.09 in 3.7 mi Variable 2.3 mph - N/A   Overcast
1:50 PM 51.8 °F - 50.0 °F 94% 30.09 in 3.7 mi Variable 2.3 mph - N/A   Overcast
2:00 PM 52 °F - 49 °F 88% 30.10 in 4 mi North 2.2 mph - -   Mist
2:20 PM 51.8 °F - 50.0 °F 94% 30.09 in 3.7 mi Variable 2.3 mph - N/A   Overcast
2:50 PM 51.8 °F - 51.8 °F 100% 30.09 in 3.7 mi NE 3.5 mph - N/A   Overcast
3:00 PM 52 °F - 50 °F 89% 30.10 in 4 mi NE 4.5 mph - -   Mist
3:20 PM 51.8 °F - 50.0 °F 94% 30.09 in 3.7 mi ENE 3.5 mph - N/A   Overcast
3:50 PM 53.6 °F - 50.0 °F 88% 30.09 in 4.3 mi Variable 2.3 mph - N/A   Overcast
4:00 PM 52 °F - 49 °F 88% 30.10 in 4 mi ENE 4.5 mph - -   Mist
4:20 PM 51.8 °F - 50.0 °F 94% 30.09 in 3.7 mi Variable 2.3 mph - N/A   Mostly Cloudy
4:50 PM 51.8 °F - 50.0 °F 94% 30.09 in 3.1 mi ENE 5.8 mph - N/A   Overcast
5:20 PM 51.8 °F - 50.0 °F 94% 30.09 in 2.5 mi NNE 5.8 mph - N/A   Overcast
5:50 PM 50.0 °F - 50.0 °F 100% 30.09 in 1.9 mi NE 4.6 mph - N/A   Overcast
6:00 PM 51 °F - 49 °F 92% 30.11 in 1 mi NE 4.5 mph - -   Mist
6:20 PM 50.0 °F - 50.0 °F 100% 30.09 in 1.2 mi NE 4.6 mph - N/A   Overcast
6:50 PM 50.0 °F - 50.0 °F 100% 30.09 in 1.1 mi ENE 4.6 mph - N/A   Overcast
7:00 PM 49 °F - 49 °F 100% 30.12 in 1 mi ENE 4.5 mph - -   Mist
7:20 PM 50.0 °F - 50.0 °F 100% 30.09 in 1.0 mi NE 4.6 mph - N/A   Overcast
7:50 PM 48.2 °F - 48.2 °F 100% 30.12 in 0.7 mi ENE 5.8 mph - N/A   Overcast
8:00 PM 49 °F - 48 °F 95% 30.13 in 0 mi NE 4.5 mph - - Fog Fog
8:20 PM 48.2 °F - 48.2 °F 100% 30.12 in 0.6 mi East 4.6 mph - N/A Fog Fog
8:50 PM 48.2 °F - 48.2 °F 100% 30.12 in 0.5 mi ENE 4.6 mph - N/A Fog Fog
9:00 PM 48 °F - 48 °F 98% 30.14 in 0 mi East 4.5 mph - - Fog Fog
9:20 PM 48.2 °F - 48.2 °F 100% 30.12 in - East 3.5 mph - N/A   Unknown
9:50 PM 48.2 °F - 48.2 °F 100% 30.12 in 0.3 mi East 4.6 mph - N/A   Unknown
10:00 PM 48 °F - 47 °F 96% 30.15 in 0 mi NE 4.5 mph - - Fog Fog
10:20 PM 48.2 °F - 48.2 °F 100% 30.12 in 0.3 mi East 5.8 mph - N/A   Unknown
10:50 PM 48.2 °F - 48.2 °F 100% 30.12 in 0.2 mi ENE 4.6 mph - N/A   Unknown
11:20 PM 48.2 °F - 48.2 °F 100% 30.12 in 0.3 mi SE 4.6 mph - N/A   Unknown
11:50 PM 48.2 °F - 48.2 °F 100% 30.12 in 0.2 mi ENE 4.6 mph - N/A   Unknown